Time,TemperatureF,DewpointF,PressureIn,WindDirection,WindDirectionDegrees,WindSpeedMPH,WindSpeedGustMPH,Humidity,HourlyPrecipIn,Conditions,Clouds,dailyrainin,SoftwareType,DateUTC
2013-03-01 00:03:00,52.7,52.2,30.24,East,90,4.7,-999.0,98,-99.99,,,0.00,Acu-Link.com,2013-03-01 08:03:00,
2013-03-01 00:18:00,52.7,52.2,30.23,West,270,1.7,-999.0,98,-99.99,,,0.01,Acu-Link.com,2013-03-01 08:18:00,
2013-03-01 00:34:00,52.9,52.4,30.22,East,90,9.9,-999.0,98,-99.99,,,0.01,Acu-Link.com,2013-03-01 08:34:00,
2013-03-01 00:49:00,53.1,52.5,30.21,SSW,202,2.7,-999.0,98,-99.99,,,0.01,Acu-Link.com,2013-03-01 08:49:00,
2013-03-01 01:19:00,52.7,52.2,30.22,WNW,292,8.3,-999.0,98,-99.99,,,0.01,Acu-Link.com,2013-03-01 09:19:00,
2013-03-01 01:34:00,52.9,52.4,30.22,West,270,5.8,-999.0,98,-99.99,,,0.01,Acu-Link.com,2013-03-01 09:34:00,
2013-03-01 01:50:00,52.9,52.4,30.23,NNW,337,4.7,-999.0,98,-99.99,,,0.01,Acu-Link.com,2013-03-01 09:50:00,
2013-03-01 02:05:00,52.7,52.2,30.22,West,270,6.8,-999.0,98,-99.99,,,0.01,Acu-Link.com,2013-03-01 10:05:00,
2013-03-01 02:20:00,52.7,52.2,30.21,West,270,2.2,-999.0,98,-99.99,,,0.01,Acu-Link.com,2013-03-01 10:20:00,
2013-03-01 02:35:00,52.9,52.4,30.21,North,0,6.8,-999.0,98,-99.99,,,0.01,Acu-Link.com,2013-03-01 10:35:00,
2013-03-01 02:50:00,52.9,52.4,30.20,North,0,6.3,-999.0,98,-99.99,,,0.01,Acu-Link.com,2013-03-01 10:50:00,
2013-03-01 03:06:00,52.9,52.4,30.20,NW,315,8.3,-999.0,98,-99.99,,,0.01,Acu-Link.com,2013-03-01 11:06:00,
2013-03-01 03:21:00,52.9,52.4,30.20,West,270,8.9,-999.0,98,-99.99,,,0.01,Acu-Link.com,2013-03-01 11:21:00,
2013-03-01 03:36:00,52.9,52.4,30.19,West,270,6.3,-999.0,98,-99.99,,,0.01,Acu-Link.com,2013-03-01 11:36:00,
2013-03-01 03:51:00,52.9,52.4,30.20,SW,225,9.9,-999.0,98,-99.99,,,0.01,Acu-Link.com,2013-03-01 11:51:00,
2013-03-01 04:06:00,52.9,52.4,30.20,ENE,67,5.8,-999.0,98,-99.99,,,0.01,Acu-Link.com,2013-03-01 12:06:00,
2013-03-01 04:21:00,53.1,52.5,30.20,West,270,6.8,-999.0,98,-99.99,,,0.01,Acu-Link.com,2013-03-01 12:21:00,
2013-03-01 04:36:00,52.9,52.4,30.21,West,270,5.3,-999.0,98,-99.99,,,0.01,Acu-Link.com,2013-03-01 12:36:00,
2013-03-01 04:52:00,53.1,52.5,30.23,WSW,247,8.9,-999.0,98,-99.99,,,0.01,Acu-Link.com,2013-03-01 12:52:00,
2013-03-01 05:07:00,52.9,52.4,30.22,WSW,247,6.3,-999.0,98,-99.99,,,0.01,Acu-Link.com,2013-03-01 13:07:00,
2013-03-01 05:22:00,52.5,52.0,30.21,WNW,292,9.4,-999.0,98,-99.99,,,0.01,Acu-Link.com,2013-03-01 13:22:00,
2013-03-01 05:37:00,52.9,52.4,30.21,West,270,12.5,-999.0,98,-99.99,,,0.01,Acu-Link.com,2013-03-01 13:37:00,
2013-03-01 05:52:00,52.9,52.4,30.23,West,270,5.8,-999.0,98,-99.99,,,0.01,Acu-Link.com,2013-03-01 13:52:00,
2013-03-01 06:07:00,53.1,52.5,30.23,SSW,202,15.0,-999.0,98,-99.99,,,0.01,Acu-Link.com,2013-03-01 14:07:00,
2013-03-01 06:23:00,52.9,52.4,30.22,East,90,6.3,-999.0,98,-99.99,,,0.01,Acu-Link.com,2013-03-01 14:23:00,
2013-03-01 06:38:00,52.9,52.4,30.24,West,270,11.9,-999.0,98,-99.99,,,0.01,Acu-Link.com,2013-03-01 14:38:00,
2013-03-01 06:53:00,52.9,52.4,30.24,West,270,6.8,-999.0,98,-99.99,,,0.01,Acu-Link.com,2013-03-01 14:53:00,
2013-03-01 07:08:00,52.7,52.2,30.23,NNE,22,7.3,-999.0,98,-99.99,,,0.01,Acu-Link.com,2013-03-01 15:08:00,
2013-03-01 07:23:00,52.7,52.2,30.24,West,270,5.3,-999.0,98,-99.99,,,0.01,Acu-Link.com,2013-03-01 15:23:00,
2013-03-01 07:39:00,52.7,52.2,30.24,West,270,5.8,-999.0,98,-99.99,,,0.01,Acu-Link.com,2013-03-01 15:39:00,
2013-03-01 07:54:00,52.9,52.4,30.24,WNW,292,5.8,-999.0,98,-99.99,,,0.01,Acu-Link.com,2013-03-01 15:54:00,
2013-03-01 08:09:00,52.5,52.0,30.24,WNW,292,6.8,-999.0,98,-99.99,,,0.01,Acu-Link.com,2013-03-01 16:09:00,
2013-03-01 08:24:00,52.5,52.0,30.25,West,270,8.3,-999.0,98,-99.99,,,0.01,Acu-Link.com,2013-03-01 16:24:00,
2013-03-01 08:39:00,52.7,52.2,30.25,South,180,6.3,-999.0,98,-99.99,,,0.01,Acu-Link.com,2013-03-01 16:39:00,
2013-03-01 08:54:00,52.9,52.4,30.25,West,270,9.4,-999.0,98,-99.99,,,0.01,Acu-Link.com,2013-03-01 16:54:00,
2013-03-01 09:09:00,52.9,52.4,30.25,West,270,14.5,-999.0,98,-99.99,,,0.01,Acu-Link.com,2013-03-01 17:09:00,
2013-03-01 09:25:00,53.2,52.6,30.25,West,270,12.5,-999.0,98,-99.99,,,0.01,Acu-Link.com,2013-03-01 17:25:00,
2013-03-01 09:40:00,53.4,52.8,30.26,West,270,8.9,-999.0,98,-99.99,,,0.01,Acu-Link.com,2013-03-01 17:40:00,
2013-03-01 09:55:00,53.4,52.8,30.26,WSW,247,9.4,-999.0,98,-99.99,,,0.01,Acu-Link.com,2013-03-01 17:55:00,
2013-03-01 10:10:00,53.6,53.0,30.25,West,270,11.9,-999.0,98,-99.99,,,0.01,Acu-Link.com,2013-03-01 18:10:00,
2013-03-01 10:25:00,53.8,53.2,30.27,WNW,292,7.3,-999.0,98,-99.99,,,0.01,Acu-Link.com,2013-03-01 18:25:00,
2013-03-01 10:40:00,53.8,53.2,30.26,South,180,8.9,-999.0,98,-99.99,,,0.01,Acu-Link.com,2013-03-01 18:40:00,
2013-03-01 10:55:00,54.0,53.4,30.26,West,270,4.2,-999.0,98,-99.99,,,0.01,Acu-Link.com,2013-03-01 18:55:00,
2013-03-01 11:10:00,54.0,53.4,30.25,NW,315,4.2,-999.0,98,-99.99,,,0.01,Acu-Link.com,2013-03-01 19:10:00,
2013-03-01 11:26:00,54.7,54.1,30.25,West,270,5.3,-999.0,98,-99.99,,,0.01,Acu-Link.com,2013-03-01 19:26:00,
2013-03-01 11:41:00,54.7,54.1,30.25,West,270,6.8,-999.0,98,-99.99,,,0.01,Acu-Link.com,2013-03-01 19:41:00,
2013-03-01 11:56:00,54.7,54.1,30.24,West,270,8.9,-999.0,98,-99.99,,,0.01,Acu-Link.com,2013-03-01 19:56:00,
2013-03-01 12:11:00,55.4,54.8,30.25,NW,315,3.7,-999.0,98,-99.99,,,0.01,Acu-Link.com,2013-03-01 20:11:00,
2013-03-01 12:26:00,55.6,55.0,30.24,West,270,7.8,-999.0,98,-99.99,,,0.01,Acu-Link.com,2013-03-01 20:26:00,
2013-03-01 12:41:00,55.8,55.2,30.24,West,270,6.3,-999.0,98,-99.99,,,0.01,Acu-Link.com,2013-03-01 20:41:00,
2013-03-01 12:56:00,55.9,55.3,30.24,NW,315,11.4,-999.0,98,-99.99,,,0.01,Acu-Link.com,2013-03-01 20:56:00,
2013-03-01 13:12:00,55.9,55.3,30.24,WNW,292,7.8,-999.0,98,-99.99,,,0.01,Acu-Link.com,2013-03-01 21:12:00,
2013-03-01 13:27:00,56.5,55.9,30.23,NE,45,6.8,-999.0,98,-99.99,,,0.01,Acu-Link.com,2013-03-01 21:27:00,
2013-03-01 13:42:00,56.3,55.7,30.23,South,180,9.9,-999.0,98,-99.99,,,0.01,Acu-Link.com,2013-03-01 21:42:00,
2013-03-01 13:57:00,56.1,55.5,30.22,West,270,10.4,-999.0,98,-99.99,,,0.01,Acu-Link.com,2013-03-01 21:57:00,
2013-03-01 14:12:00,56.3,55.7,30.22,WNW,292,5.3,-999.0,98,-99.99,,,0.01,Acu-Link.com,2013-03-01 22:12:00,
2013-03-01 14:27:00,55.9,55.3,30.22,WNW,292,6.3,-999.0,98,-99.99,,,0.01,Acu-Link.com,2013-03-01 22:27:00,
2013-03-01 14:42:00,55.9,55.3,30.22,West,270,4.7,-999.0,98,-99.99,,,0.01,Acu-Link.com,2013-03-01 22:42:00,
2013-03-01 14:57:00,56.5,55.9,30.22,West,270,6.3,-999.0,98,-99.99,,,0.01,Acu-Link.com,2013-03-01 22:57:00,
2013-03-01 15:13:00,56.8,56.2,30.22,West,270,3.7,-999.0,98,-99.99,,,0.01,Acu-Link.com,2013-03-01 23:13:00,
2013-03-01 15:28:00,56.8,56.2,30.23,West,270,3.2,-999.0,98,-99.99,,,0.01,Acu-Link.com,2013-03-01 23:28:00,
2013-03-01 15:43:00,56.8,56.2,30.22,WSW,247,5.8,-999.0,98,-99.99,,,0.01,Acu-Link.com,2013-03-01 23:43:00,
2013-03-01 15:58:00,56.7,56.1,30.21,WSW,247,7.8,-999.0,98,-99.99,,,0.01,Acu-Link.com,2013-03-01 23:58:00,
2013-03-01 16:14:00,56.1,55.5,30.22,SSW,202,3.2,-999.0,98,-99.99,,,0.01,Acu-Link.com,2013-03-02 00:14:00,
2013-03-01 16:29:00,55.9,55.3,30.23,NW,315,2.7,-999.0,98,-99.99,,,0.01,Acu-Link.com,2013-03-02 00:29:00,
2013-03-01 16:44:00,55.9,55.3,30.22,West,270,5.8,-999.0,98,-99.99,,,0.01,Acu-Link.com,2013-03-02 00:44:00,
2013-03-01 16:59:00,55.8,55.2,30.22,West,270,4.2,-999.0,98,-99.99,,,0.01,Acu-Link.com,2013-03-02 00:59:00,
2013-03-01 17:14:00,55.6,55.0,30.22,SW,225,6.8,-999.0,98,-99.99,,,0.01,Acu-Link.com,2013-03-02 01:14:00,
2013-03-01 17:29:00,55.2,54.6,30.22,West,270,6.8,-999.0,98,-99.99,,,0.01,Acu-Link.com,2013-03-02 01:29:00,
2013-03-01 17:44:00,55.0,54.4,30.22,WSW,247,3.7,-999.0,98,-99.99,,,0.01,Acu-Link.com,2013-03-02 01:44:00,
2013-03-01 18:00:00,54.7,54.1,30.22,West,270,6.8,-999.0,98,-99.99,,,0.01,Acu-Link.com,2013-03-02 02:00:00,
2013-03-01 18:15:00,54.3,53.7,30.22,West,270,6.3,-999.0,98,-99.99,,,0.01,Acu-Link.com,2013-03-02 02:15:00,
2013-03-01 18:30:00,54.5,53.9,30.25,West,270,6.3,-999.0,98,-99.99,,,0.01,Acu-Link.com,2013-03-02 02:30:00,
2013-03-01 18:46:00,54.5,53.9,30.23,West,270,8.9,-999.0,98,-99.99,,,0.01,Acu-Link.com,2013-03-02 02:46:00,
2013-03-01 19:01:00,54.1,53.5,30.23,West,270,5.8,-999.0,98,-99.99,,,0.01,Acu-Link.com,2013-03-02 03:01:00,
2013-03-01 19:16:00,54.1,53.5,30.23,West,270,9.4,-999.0,98,-99.99,,,0.01,Acu-Link.com,2013-03-02 03:16:00,
2013-03-01 19:31:00,54.0,53.4,30.23,East,90,3.2,-999.0,98,-99.99,,,0.01,Acu-Link.com,2013-03-02 03:31:00,
2013-03-01 19:46:00,53.8,53.2,30.23,West,270,4.2,-999.0,98,-99.99,,,0.01,Acu-Link.com,2013-03-02 03:46:00,
2013-03-01 20:01:00,54.0,53.4,30.23,ENE,67,4.2,-999.0,98,-99.99,,,0.01,Acu-Link.com,2013-03-02 04:01:00,
2013-03-01 20:17:00,54.1,53.5,30.23,WNW,292,2.7,-999.0,98,-99.99,,,0.01,Acu-Link.com,2013-03-02 04:17:00,
2013-03-01 20:32:00,54.1,53.5,30.23,SW,225,2.7,-999.0,98,-99.99,,,0.01,Acu-Link.com,2013-03-02 04:32:00,
2013-03-01 20:47:00,54.1,53.5,30.23,WNW,292,8.9,-999.0,98,-99.99,,,0.01,Acu-Link.com,2013-03-02 04:47:00,
2013-03-01 21:03:00,54.1,53.5,30.23,WSW,247,10.4,-999.0,98,-99.99,,,0.01,Acu-Link.com,2013-03-02 05:03:00,
2013-03-01 21:18:00,53.6,53.0,30.23,West,270,8.3,-999.0,98,-99.99,,,0.01,Acu-Link.com,2013-03-02 05:18:00,
2013-03-01 21:33:00,53.6,53.0,30.22,West,270,6.8,-999.0,98,-99.99,,,0.01,Acu-Link.com,2013-03-02 05:33:00,
2013-03-01 21:48:00,53.6,53.0,30.22,WNW,292,7.3,-999.0,98,-99.99,,,0.01,Acu-Link.com,2013-03-02 05:48:00,
2013-03-01 22:04:00,53.4,52.8,30.22,West,270,2.7,-999.0,98,-99.99,,,0.01,Acu-Link.com,2013-03-02 06:04:00,
2013-03-01 22:19:00,53.4,52.8,30.22,WSW,247,2.2,-999.0,98,-99.99,,,0.01,Acu-Link.com,2013-03-02 06:19:00,
2013-03-01 22:34:00,53.2,52.6,30.22,WNW,292,2.2,-999.0,98,-99.99,,,0.01,Acu-Link.com,2013-03-02 06:34:00,
2013-03-01 22:50:00,53.2,52.6,30.21,WNW,292,7.3,-999.0,98,-99.99,,,0.01,Acu-Link.com,2013-03-02 06:50:00,
2013-03-01 23:05:00,53.2,52.6,30.21,West,270,4.7,-999.0,98,-99.99,,,0.01,Acu-Link.com,2013-03-02 07:05:00,
2013-03-01 23:20:00,53.2,52.6,30.21,WNW,292,5.8,-999.0,98,-99.99,,,0.01,Acu-Link.com,2013-03-02 07:20:00,
2013-03-01 23:35:00,52.7,52.2,30.21,West,270,6.8,-999.0,98,-99.99,,,0.01,Acu-Link.com,2013-03-02 07:35:00,
2013-03-01 23:51:00,52.7,52.2,30.21,NNW,337,2.7,-999.0,98,-99.99,,,0.01,Acu-Link.com,2013-03-02 07:51:00,